Location: Zagreb
(45.8000°N, 16.0000°E)
Time: 20:25:20
(UTC+01:00)

deb Explorer IX - Pass Details

Date: 11 October 2020
Orbit: 537 x 1106 km, 38.8° (Epoch: 30 October)

Event Time Altitude Azimuth Distance (km) Brightness Sun altitude
Rises 15:36:15 0° 259° (W) 3,727 ? 24.3°
Reaches altitude 10° 15:39:12 10° 254° (WSW) 2,698 ? 23.9°
Maximum altitude 15:45:14 43° 185° (S) 1,198 ? 23.1°
Drops below altitude 10° 15:50:26 10° 115° (ESE) 2,317 ? 22.4°
Sets 15:52:48 0° 108° (ESE) 3,153 ? 22.0°
